TELSTAR 19V             
1 43562U 18059A   19261.54519225 -.00000283  00000-0  00000+0 0  9998
2 43562   0.0095 174.1396 0002211   8.5502 307.7653  1.00271340  4466
FALCON 9 R/B            
1 43563U 18059B   19260.95868161  .00006574  00000-0  38575-3 0  9999
2 43563  26.9578 199.3167 5668953  88.9267 331.9038  4.60572316 19313